EW1036 Weather Reports


Display with metric or nautical units.
time (UTC)temp
F
wind
direction
speed
MPH
gust
MPH
rain 1hr
in
rain 24hr
in
rain mn
in
humidity
%
barometer
mb
20260504081544 51 0 0.0 0.0 0.00 0.00 0.00 90 1018.7
20260504081032 51 0 0.0 0.0 0.00 0.00 0.00 90 1018.8
20260504080532 52 0 0.0 0.0 0.00 0.00 0.00 90 1018.8
20260504050532 52 0 0.0 0.0 0.00 0.00 0.00 91 1018.8
20260504045536 52 0 0.0 0.0 0.00 0.00 0.00 90 1018.9
20260504045032 52 0 0.0 0.0 0.00 0.00 0.00 90 1018.9
20260504044543 52 0 0.0 0.0 0.00 0.00 0.00 90 1018.9
20260504044033 52 0 0.0 0.0 0.00 0.00 0.00 90 1018.9
20260504043533 51 0 0.0 0.0 0.00 0.00 0.00 90 1018.9
20260504043050 51 0 0.0 0.0 0.00 0.00 0.00 90 1018.9
20260504042533 51 0 0.0 0.0 0.00 0.00 0.00 90 1018.9
20260504042030 51 0 0.0 0.0 0.00 0.00 0.00 89 1018.9
20260504041550 51 0 0.0 0.0 0.00 0.00 0.00 89 1018.9
20260504041032 51 0 0.0 0.0 0.00 0.00 0.00 89 1019.0
20260504040534 51 0 0.0 0.0 0.00 0.00 0.00 88 1019.0
20260504040053 51 0 0.0 0.0 0.00 0.00 0.00 88 1019.0
20260504035535 51 0 0.0 0.0 0.00 0.00 0.00 88 1018.9
20260504035033 51 0 0.0 0.0 0.00 0.00 0.00 87 1018.9
20260504034546 51 0 0.0 0.0 0.00 0.00 0.00 87 1019.0
20260504034035 51 0 0.0 0.0 0.00 0.00 0.00 87 1019.0
20260504033533 51 0 0.0 0.0 0.00 0.00 0.00 86 1018.9
20260504033043 51 0 0.0 0.0 0.00 0.00 0.00 86 1019.1
20260504032533 51 0 0.0 0.0 0.00 0.00 0.00 86 1019.1
20260504032033 51 0 0.0 0.0 0.00 0.00 0.00 86 1019.1
20260504031546 52 0 0.0 0.0 0.00 0.00 0.00 86 1019.1
20260504031032 52 0 0.0 0.0 0.00 0.00 0.00 86 1019.1
20260504030532 52 0 0.0 0.0 0.00 0.00 0.00 86 1019.1
20260504030043 52 0 0.0 0.0 0.00 0.00 0.00 85 1019.0
20260504025532 52 0 0.0 0.0 0.00 0.00 0.00 85 1018.9
20260504025033 52 0 0.0 0.0 0.00 0.00 0.00 85 1018.9
20260504024601 52 0 0.0 0.0 0.00 0.00 0.00 85 1018.9
20260504024032 52 0 0.0 0.0 0.00 0.00 0.00 85 1018.8
20260504023532 52 0 0.0 0.0 0.00 0.00 0.00 85 1018.9
20260504023038 53 0 0.0 0.0 0.00 0.00 0.00 84 1018.8
20260504022532 53 0 0.0 0.0 0.00 0.00 0.00 84 1018.8
20260504022032 53 0 0.0 0.0 0.00 0.00 0.00 84 1018.9
20260504021544 53 0 0.0 0.0 0.00 0.00 0.00 84 1018.7
20260504021032 53 0 0.0 0.0 0.00 0.00 0.00 83 1018.6
20260504020531 53 0 0.0 0.0 0.00 0.00 0.00 82 1018.5
20260504020048 53 0 0.0 0.0 0.00 0.00 0.00 82 1018.6
20260504015532 53 0 0.0 0.0 0.00 0.01 0.00 82 1018.5
20260504015032 54 0 0.0 0.0 0.00 0.01 0.00 81 1018.4
20260504014545 54 0 0.0 0.0 0.00 0.01 0.00 81 1018.4
20260504014033 54 0 0.0 0.0 0.00 0.01 0.00 81 1018.3
20260504013532 54 0 0.0 0.0 0.00 0.01 0.00 80 1018.2
20260504013051 54 0 0.0 0.0 0.00 0.01 0.00 80 1018.1
20260504012532 54 0 0.0 0.0 0.00 0.01 0.00 79 1018.1
20260504012032 54 0 0.0 0.0 0.00 0.01 0.00 79 1018.2
20260504011537 54 0 0.0 0.0 0.00 0.01 0.00 79 1018.0
20260504011031 55 0 0.0 0.0 0.00 0.01 0.00 77 1017.9
20260504010531 55 0 0.0 0.0 0.00 0.01 0.00 77 1017.8
20260504010044 55 0 0.0 0.0 0.00 0.01 0.00 76 1017.9
20260504005542 55 0 0.0 0.0 0.00 0.01 0.00 76 1017.7
20260504005033 55 0 0.0 0.0 0.00 0.01 0.00 75 1017.7
20260504004547 55 0 0.0 0.0 0.00 0.01 0.00 75 1017.6
20260504004032 56 0 0.0 0.0 0.00 0.01 0.00 76 1017.5
20260504003532 56 0 0.0 0.0 0.00 0.01 0.00 74 1017.6
20260504003048 56 0 0.0 0.0 0.00 0.01 0.00 73 1017.5
20260504002532 57 0 0.0 0.0 0.00 0.01 0.00 73 1017.4
20260504002034 57 0 0.0 0.0 0.00 0.01 0.00 72 1017.3
20260504001545 58 0 0.0 0.0 0.00 0.01 0.00 72 1017.3
20260504001032 58 0 0.0 0.0 0.00 0.01 0.00 70 1017.4
20260504000533 59 0 0.0 0.0 0.00 0.01 0.00 69 1017.3
20260504000112 59 0 0.0 0.0 0.00 0.01 0.00 68 1017.2
20260503235533 60 0 0.0 0.0 0.00 0.05 0.00 67 1017.2
20260503235032 60 0 0.0 0.0 0.00 0.05 0.00 65 1017.1
20260503234551 60 0 0.0 0.0 0.00 0.05 0.00 61 1017.1
20260503234032 60 0 0.0 0.0 0.00 0.05 0.00 60 1017.1
20260503233533 60 0 0.0 0.0 0.00 0.05 0.00 59 1017.1
20260503233043 61 0 0.0 0.0 0.00 0.05 0.00 60 1017.0
20260503232533 61 0 0.0 0.0 0.00 0.05 0.00 57 1017.1
20260503232032 61 0 0.0 0.0 0.00 0.05 0.00 57 1016.9
20260503231548 62 0 0.0 0.0 0.00 0.05 0.00 59 1017.0
20260503231033 62 0 0.0 0.0 0.00 0.05 0.00 59 1017.0
20260503230534 62 0 0.0 0.0 0.00 0.05 0.00 59 1016.9
20260503230042 62 0 0.0 0.0 0.00 0.05 0.00 58 1016.9
20260503225534 62 0 0.0 0.0 0.00 0.15 0.00 57 1016.8
20260503225033 63 0 0.0 0.0 0.00 0.15 0.00 58 1016.8
20260503224545 63 0 0.0 0.0 0.00 0.15 0.00 54 1016.8
20260503224034 63 0 0.0 0.0 0.00 0.15 0.00 54 1016.7
20260503223532 63 0 0.0 0.0 0.00 0.15 0.00 52 1016.7
20260503223046 63 0 0.0 0.0 0.00 0.15 0.00 49 1016.6
20260503222532 64 0 0.0 0.0 0.00 0.15 0.00 52 1016.7
20260503222031 64 0 0.0 4.0 0.00 0.15 0.00 53 1016.6
20260503221551 64 0 0.0 4.0 0.00 0.15 0.00 50 1016.7
20260503221032 64 168 0.0 2.0 0.00 0.15 0.00 49 1016.6
20260503220532 64 0 0.0 2.0 0.00 0.15 0.00 52 1016.7
20260503220046 64 0 0.0 2.0 0.00 0.15 0.00 43 1016.6
20260503215533 64 0 0.0 1.0 0.00 0.20 0.00 48 1016.6
20260503215034 64 0 0.0 2.0 0.00 0.20 0.00 48 1016.5
20260503214548 64 0 0.0 3.0 0.00 0.20 0.00 42 1016.4
20260503214032 64 0 0.0 3.0 0.00 0.20 0.00 46 1016.5
20260503213533 63 61 0.0 1.0 0.00 0.20 0.00 49 1016.4
20260503213048 63 0 0.0 1.0 0.00 0.20 0.00 52 1016.5
20260503212537 63 0 0.0 1.0 0.00 0.20 0.00 41 1016.6
20260503212034 63 0 0.0 1.0 0.00 0.20 0.00 53 1016.6
20260503211559 64 0 0.0 2.0 0.00 0.20 0.00 52 1016.6
20260503211034 64 0 0.0 2.0 0.00 0.20 0.00 43 1016.7
20260503210532 64 0 0.0 1.0 0.00 0.20 0.00 43 1016.7
20260503210043 63 0 0.0 1.0 0.00 0.20 0.00 52 1016.7
20260503205534 63 0 0.0 3.0 0.00 0.28 0.00 51 1016.6
20260503205034 64 0 0.0 3.0 0.00 0.28 0.00 53 1016.6
20260503204542 64 132 0.0 2.0 0.00 0.28 0.00 48 1016.7
20260503204032 64 0 0.0 2.0 0.00 0.28 0.00 48 1016.7
20260503203534 64 0 0.0 1.0 0.00 0.28 0.00 49 1016.7
20260503203105 64 0 0.0 3.0 0.00 0.28 0.00 48 1016.7
20260503202533 64 105 0.0 3.0 0.00 0.28 0.00 42 1016.7
20260503202033 64 0 0.0 3.0 0.00 0.28 0.00 44 1016.7
20260503201546 64 0 0.0 5.0 0.00 0.28 0.00 51 1016.7
20260503201033 64 0 0.0 5.0 0.00 0.28 0.00 52 1016.8
20260503200536 64 157 1.0 4.0 0.00 0.28 0.00 52 1016.6
20260503200047 64 5 0.0 2.0 0.00 0.28 0.00 46 1016.8
20260503195530 64 0 0.0 2.0 0.00 0.31 0.00 43 1016.8
20260503195034 64 0 0.0 2.0 0.00 0.31 0.00 48 1016.8
20260503194547 64 0 0.0 2.0 0.00 0.31 0.00 46 1016.9
20260503194032 64 0 0.0 2.0 0.00 0.31 0.00 46 1016.9
20260503193532 63 0 0.0 3.0 0.00 0.31 0.00 41 1017.0
20260503193044 63 0 0.0 3.0 0.00 0.31 0.00 41 1017.1
20260503192532 64 265 0.0 4.0 0.00 0.31 0.00 46 1017.2
20260503192033 64 0 0.0 4.0 0.00 0.31 0.00 41 1017.2
20260503191551 64 319 0.0 6.0 0.00 0.31 0.00 42 1017.4
20260503191033 64 150 0.0 6.0 0.00 0.31 0.00 43 1017.4
20260503190534 64 100 0.0 3.0 0.00 0.31 0.00 40 1017.5
20260503190044 64 0 0.0 3.0 0.00 0.31 0.00 46 1017.7
20260503185534 64 0 0.0 3.0 0.00 0.34 0.00 50 1017.6
20260503185033 64 297 0.0 3.0 0.00 0.34 0.00 48 1017.7
20260503184549 64 0 0.0 3.0 0.00 0.34 0.00 40 1017.7
20260503184033 64 0 1.0 3.0 0.00 0.34 0.00 47 1017.8
20260503183533 64 0 1.0 3.0 0.00 0.34 0.00 46 1017.8
20260503183046 64 274 0.0 3.0 0.00 0.34 0.00 42 1017.9
20260503182532 64 0 0.0 3.0 0.00 0.34 0.00 45 1017.9
20260503182033 64 180 0.0 2.0 0.00 0.34 0.00 51 1017.9
20260503181549 64 0 0.0 2.0 0.00 0.34 0.00 42 1018.0
20260503181034 63 0 0.0 2.0 0.00 0.34 0.00 47 1018.0
20260503180534 63 0 0.0 3.0 0.00 0.34 0.00 44 1018.0
20260503180049 63 0 0.0 3.0 0.00 0.34 0.00 51 1018.1
20260503175533 63 0 0.0 6.0 0.00 0.46 0.00 51 1018.1
20260503175033 62 0 0.0 6.0 0.00 0.46 0.00 42 1018.1
20260503174550 63 75 1.0 6.0 0.00 0.46 0.00 41 1018.2
20260503174033 63 0 0.0 3.0 0.00 0.46 0.00 42 1018.2
20260503173533 63 73 0.0 5.0 0.00 0.46 0.00 47 1018.2
20260503173054 63 287 1.0 5.0 0.00 0.46 0.00 50 1018.3
20260503172534 62 0 0.0 5.0 0.00 0.46 0.00 51 1018.2
20260503172033 62 0 0.0 5.0 0.00 0.46 0.00 48 1018.3
20260503171549 62 142 1.0 7.0 0.00 0.46 0.00 47 1018.3
20260503171033 61 101 1.0 7.0 0.00 0.46 0.00 43 1018.3
20260503170534 61 0 1.0 4.0 0.00 0.46 0.00 54 1018.4
20260503150533 57 0 0.0 7.0 0.00 0.57 0.00 70 1018.7
20260503131035 50 304 1.0 5.0 0.00 0.57 0.00 87 1018.2
20260503130535 49 67 1.0 6.0 0.00 0.57 0.00 88 1018.2
20260503110533 47 0 0.0 0.0 0.00 0.63 0.00 94 1016.7